STARLINK-34771

Satellite information

Favourite Embed

Satellite Type and Status

PAYLOADIN ORBIT

Key statistics

Satellite STARLINK-34771 at a glance.

Uptime

127

Days in orbit

Revolutions

≈ 15.3

Per day

Orbit

LEO

Low Earth Orbit

Inclination

53.2

Latest

Satellite identification and parameters

Extended collection of information and parameters for STARLINK-34771.

Object identification

Identified? True

Debris? False

Object name: STARLINK-34771

International designator: 2025-167A

Object number (NORAD): 65078

Object ID (CCSDS): 65078

Country: UNITED STATES OF AMERICA (US)

Current information (Y/N): Y

RCS size: LARGE

Orbital parameters

Period: 94.107 minutes

Inclination: 53.1602 deg

SMA: 6853.429 km

Apoapsis: 476.114 km

Periapsis: 474.474 km

RAAN: 86.1585 deg

Eccentricy: 0.0001197

Argument of periapsis: 76.0199 deg

Mean anomaly: 353.0303 deg

Mean motion: 15.30174249 rev/day

Mean motion (dot): 0.00035502 rev/day2

B* drag term: 0.001206 1/REarth

Two-line elements (TLE)

Creation date: Dec. 9, 2025, 12:26 a.m.

Reference frame: TEME

Reference center: EARTH

Epoch: Dec. 8, 2025, 8 p.m. UTC

TLE line 0: 0 STARLINK-34771

TLE line 1: 1 65078U 25167A 25342.83335647 .00035502 00000-0 12060-2 0 9998

TLE line 2: 2 65078 53.1602 86.1585 0001197 76.0199 353.0303 15.30174249 5938

Live tracking on map

Real-time ground track for satellite STARLINK-34771.

In-orbit conjunctions

There are no conjunctions computed for STARLINK-34771, at the moment. Check back to stay up to date, as we update our databases every day.

Go to all conjunctions

Associated space launch

A batch of 28 satellites for the Starlink mega-constellation - SpaceX's project for space-based Internet communication system.

STARLINK-34771 was lifted into orbit during the mission ‘Falcon 9 Block 5 | Starlink Group 10-30’, on board a Falcon 9 space rocket.

The launch took place on Aug. 4, 2025, 7:57 a.m. from Space Launch Complex 40.

For more information about the launch, click the button.

Launch to space Falcon 9 Block 5 | Starlink Group 10-30
Falcon 9 Block 5 | Starlink Group 10-30

Agency: SpaceX

Status: Launch Successful

Launch date: Aug. 4, 2025, 7:57 a.m. UTC

Rocket: Falcon 9

Launch pad: Space Launch Complex 40

Location: Cape Canaveral SFS, FL, USA

...

Latest news about this satellite

News about space launch
Live coverage: Starlink mission marks SpaceX’s 450th flight-proven Falcon booster launch

The Starlink 10-30 mission will add 28 more satellites to SpaceX’s low Earth orbit megaconstellation. Liftoff of the Falcon 9 rocket from pad 40 at Cape Canaveral Space Force Station is set for 1:03 a.m. EDT (0503 UTC) on Monday.


Newsletter sign-up

Weekly statistics, charts and insights to help you stay on top of the space industry.